Time,TemperatureF,DewpointF,PressureIn,WindDirection,WindDirectionDegrees,WindSpeedMPH,WindSpeedGustMPH,Humidity,HourlyPrecipIn,Conditions,Clouds,dailyrainin,SoftwareType,DateUTC
2013-06-26 00:00:00,56.8,38.9,29.32,ESE,120,0.0,0.0,51,0.00,,BKN110,0.00,VWS V14.00,2013-06-26 07:00:00,
2013-06-26 00:06:00,56.8,38.9,29.32,ESE,120,0.0,0.0,51,0.00,,OVC080,0.00,VWS V14.00,2013-06-26 07:06:00,
2013-06-26 00:12:00,56.8,38.9,29.32,ESE,120,0.0,0.0,51,0.00,,OVC080,0.00,VWS V14.00,2013-06-26 07:12:00,
2013-06-26 00:17:00,56.8,38.9,29.32,ESE,120,0.0,0.0,51,0.00,,OVC080,0.00,VWS V14.00,2013-06-26 07:17:00,
2013-06-26 00:23:00,56.8,38.9,29.32,ESE,120,0.0,0.0,51,0.00,,OVC080,0.00,VWS V14.00,2013-06-26 07:23:00,
2013-06-26 00:28:00,56.8,38.9,29.32,ESE,120,0.0,0.0,51,0.00,,OVC080,0.00,VWS V14.00,2013-06-26 07:28:00,
2013-06-26 00:33:00,56.8,38.9,29.32,ESE,120,0.0,0.0,51,0.00,,OVC080,0.00,VWS V14.00,2013-06-26 07:33:00,
2013-06-26 00:38:00,56.8,38.9,29.32,ESE,120,0.0,0.0,51,0.00,,OVC080,0.00,VWS V14.00,2013-06-26 07:38:00,
2013-06-26 00:44:00,56.8,38.9,29.32,ESE,120,0.0,0.0,51,0.00,,OVC080,0.00,VWS V14.00,2013-06-26 07:44:00,
2013-06-26 00:49:00,56.8,38.9,29.32,ESE,120,0.0,0.0,51,0.00,,OVC080,0.00,VWS V14.00,2013-06-26 07:49:00,
2013-06-26 00:54:00,56.8,38.9,29.32,ESE,120,0.0,0.0,51,0.00,,OVC080,0.00,VWS V14.00,2013-06-26 07:54:00,
2013-06-26 00:59:00,56.8,38.9,29.32,ESE,120,0.0,0.0,51,0.00,,OVC080,0.00,VWS V14.00,2013-06-26 07:59:00,
2013-06-26 01:05:00,56.8,38.9,29.32,ESE,120,0.0,0.0,51,0.00,,FEW110,0.00,VWS V14.00,2013-06-26 08:05:00,
2013-06-26 01:10:00,56.8,38.9,29.32,ESE,120,0.0,0.0,51,0.00,,FEW110,0.00,VWS V14.00,2013-06-26 08:10:00,
2013-06-26 01:15:00,56.8,38.9,29.32,ESE,120,0.0,0.0,51,0.00,,FEW110,0.00,VWS V14.00,2013-06-26 08:15:00,
2013-06-26 01:20:00,56.8,38.9,29.32,ESE,120,0.0,0.0,51,0.00,,FEW110,0.00,VWS V14.00,2013-06-26 08:20:00,
2013-06-26 01:26:00,56.8,38.9,29.32,ESE,120,0.0,0.0,51,0.00,,FEW110,0.00,VWS V14.00,2013-06-26 08:26:00,
2013-06-26 01:31:00,56.8,38.9,29.32,ESE,120,0.0,0.0,51,0.00,,FEW110,0.00,VWS V14.00,2013-06-26 08:31:00,
2013-06-26 01:36:00,56.8,38.9,29.32,ESE,120,0.0,0.0,51,0.00,,FEW110,0.00,VWS V14.00,2013-06-26 08:36:00,
2013-06-26 01:41:00,56.8,38.9,29.32,ESE,120,0.0,0.0,51,0.00,,FEW110,0.00,VWS V14.00,2013-06-26 08:41:00,
2013-06-26 01:47:00,56.8,38.9,29.32,ESE,120,0.0,0.0,51,0.00,,FEW110,0.00,VWS V14.00,2013-06-26 08:47:00,
2013-06-26 01:52:00,56.8,38.9,29.32,ESE,120,0.0,0.0,51,0.00,,FEW110,0.00,VWS V14.00,2013-06-26 08:52:00,
2013-06-26 01:57:00,56.8,38.9,29.32,ESE,120,0.0,0.0,51,0.00,,FEW110,0.00,VWS V14.00,2013-06-26 08:57:00,
2013-06-26 02:02:00,56.8,38.9,29.32,ESE,120,0.0,0.0,51,0.00,,OVC075,0.00,VWS V14.00,2013-06-26 09:02:00,
2013-06-26 02:08:00,56.8,38.9,29.32,ESE,120,0.0,0.0,51,0.00,,OVC075,0.00,VWS V14.00,2013-06-26 09:08:00,
2013-06-26 02:13:00,56.8,38.9,29.32,ESE,120,0.0,0.0,51,0.00,,OVC075,0.00,VWS V14.00,2013-06-26 09:13:00,
2013-06-26 02:18:00,56.8,38.9,29.32,ESE,120,0.0,0.0,51,0.00,,OVC075,0.00,VWS V14.00,2013-06-26 09:18:00,
2013-06-26 02:23:00,56.8,38.9,29.32,ESE,120,0.0,0.0,51,0.00,,OVC075,0.00,VWS V14.00,2013-06-26 09:23:00,
2013-06-26 02:29:00,56.8,38.9,29.32,ESE,120,0.0,0.0,51,0.00,,OVC075,0.00,VWS V14.00,2013-06-26 09:29:00,
2013-06-26 02:34:00,56.8,38.9,29.32,ESE,120,0.0,0.0,51,0.00,,OVC075,0.00,VWS V14.00,2013-06-26 09:34:00,
2013-06-26 02:39:00,56.8,38.9,29.32,ESE,120,0.0,0.0,51,0.00,,OVC075,0.00,VWS V14.00,2013-06-26 09:39:00,
2013-06-26 02:44:00,56.8,38.9,29.32,NE,37,0.0,0.0,51,0.00,,OVC075,0.00,VWS V14.00,2013-06-26 09:44:00,
2013-06-26 02:50:00,56.8,38.9,29.32,NE,34,0.0,0.0,51,0.00,,OVC075,0.00,VWS V14.00,2013-06-26 09:50:00,
2013-06-26 02:55:00,56.8,38.9,29.32,NE,47,0.0,0.0,51,0.00,,OVC075,0.00,VWS V14.00,2013-06-26 09:55:00,
2013-06-26 03:00:00,56.8,38.9,29.32,NE,47,0.0,0.0,51,0.00,,OVC075,0.00,VWS V14.00,2013-06-26 10:00:00,
2013-06-26 03:05:00,56.8,38.9,29.32,NE,47,0.0,0.0,51,0.00,,OVC080,0.00,VWS V14.00,2013-06-26 10:05:00,
2013-06-26 03:11:00,56.8,38.9,29.32,NE,47,0.0,0.0,51,0.00,,OVC080,0.00,VWS V14.00,2013-06-26 10:11:00,
2013-06-26 03:16:00,56.8,38.9,29.32,NE,47,0.0,0.0,51,0.00,,OVC080,0.00,VWS V14.00,2013-06-26 10:16:00,
2013-06-26 03:21:00,56.8,38.9,29.32,NE,47,0.0,0.0,51,0.00,,OVC080,0.00,VWS V14.00,2013-06-26 10:21:00,
2013-06-26 03:26:00,56.8,38.9,29.32,NE,47,0.0,0.0,51,0.00,,OVC080,0.00,VWS V14.00,2013-06-26 10:26:00,
2013-06-26 03:32:00,56.8,38.9,29.32,NE,48,0.0,0.0,51,0.00,,OVC080,0.00,VWS V14.00,2013-06-26 10:32:00,
2013-06-26 03:37:00,56.8,38.9,29.32,NE,47,0.0,0.0,51,0.00,,OVC080,0.00,VWS V14.00,2013-06-26 10:37:00,
2013-06-26 03:42:00,56.8,38.9,29.32,NE,47,0.0,0.0,51,0.00,,OVC080,0.00,VWS V14.00,2013-06-26 10:42:00,
2013-06-26 03:47:00,56.8,38.9,29.32,NE,47,0.0,0.0,51,0.00,,OVC080,0.00,VWS V14.00,2013-06-26 10:47:00,
2013-06-26 03:52:00,56.8,38.9,29.32,NE,47,0.0,0.0,51,0.00,,OVC080,0.00,VWS V14.00,2013-06-26 10:52:00,
2013-06-26 03:57:00,56.8,38.9,29.32,NE,47,0.0,0.0,51,0.00,,OVC080,0.00,VWS V14.00,2013-06-26 10:57:00,
2013-06-26 04:02:00,56.8,38.9,29.32,NE,47,0.0,0.0,51,0.00,,OVC070,0.00,VWS V14.00,2013-06-26 11:02:00,
2013-06-26 04:07:00,56.8,38.9,29.32,NE,47,0.0,0.0,51,0.00,,OVC070,0.00,VWS V14.00,2013-06-26 11:07:00,
2013-06-26 04:12:00,56.8,38.9,29.32,NE,48,0.0,0.0,51,0.00,,OVC070,0.00,VWS V14.00,2013-06-26 11:12:00,
2013-06-26 04:17:00,56.8,38.9,29.32,NE,47,0.0,0.0,51,0.00,,OVC070,0.00,VWS V14.00,2013-06-26 11:17:00,
2013-06-26 04:22:00,56.8,38.9,29.32,NE,47,0.0,0.0,51,0.00,,OVC070,0.00,VWS V14.00,2013-06-26 11:22:00,
2013-06-26 04:27:00,56.8,38.9,29.32,NE,47,0.0,0.0,51,0.00,,OVC070,0.00,VWS V14.00,2013-06-26 11:27:00,
2013-06-26 04:32:00,56.8,38.9,29.32,NE,47,0.0,0.0,51,0.00,,OVC070,0.00,VWS V14.00,2013-06-26 11:32:00,
2013-06-26 04:37:00,56.8,38.9,29.32,NE,47,0.0,0.0,51,0.00,,OVC070,0.00,VWS V14.00,2013-06-26 11:37:00,
2013-06-26 04:42:00,56.8,38.9,29.32,NE,48,0.0,0.0,51,0.00,,OVC070,0.00,VWS V14.00,2013-06-26 11:42:00,
2013-06-26 04:47:00,56.8,38.9,29.32,NE,47,0.0,0.0,51,0.00,,OVC070,0.00,VWS V14.00,2013-06-26 11:47:00,
2013-06-26 04:52:00,56.8,38.9,29.32,NE,47,0.0,0.0,51,0.00,,OVC070,0.00,VWS V14.00,2013-06-26 11:52:00,
2013-06-26 04:57:00,56.8,38.9,29.32,NE,47,0.0,0.0,51,0.00,,OVC070,0.00,VWS V14.00,2013-06-26 11:57:00,
2013-06-26 05:02:00,56.8,38.9,29.32,NE,47,0.0,0.0,51,0.00,,OVC090,0.00,VWS V14.00,2013-06-26 12:02:00,
2013-06-26 05:07:00,56.8,38.9,29.32,NE,47,0.0,0.0,51,0.00,,OVC090,0.00,VWS V14.00,2013-06-26 12:07:00,
2013-06-26 05:12:00,56.8,38.9,29.32,NE,47,0.0,0.0,51,0.00,,OVC090,0.00,VWS V14.00,2013-06-26 12:12:00,
2013-06-26 05:17:00,56.8,38.9,29.32,NE,47,0.0,0.0,51,0.00,,OVC090,0.00,VWS V14.00,2013-06-26 12:17:00,
2013-06-26 05:22:00,56.8,38.9,29.32,NE,47,0.0,0.0,51,0.00,,OVC090,0.00,VWS V14.00,2013-06-26 12:22:00,
2013-06-26 05:27:00,56.8,38.9,29.32,NE,47,0.0,0.0,51,0.00,,OVC090,0.00,VWS V14.00,2013-06-26 12:27:00,
2013-06-26 05:32:00,56.8,38.9,29.32,NE,47,0.0,0.0,51,0.00,,OVC090,0.00,VWS V14.00,2013-06-26 12:32:00,
2013-06-26 05:37:00,56.8,38.9,29.32,NE,47,0.0,0.0,51,0.00,,OVC090,0.00,VWS V14.00,2013-06-26 12:37:00,
2013-06-26 05:42:00,56.8,38.9,29.32,NE,47,0.0,0.0,51,0.00,,OVC090,0.00,VWS V14.00,2013-06-26 12:42:00,
2013-06-26 05:47:00,56.8,38.9,29.32,NE,47,0.0,0.0,51,0.00,,OVC090,0.00,VWS V14.00,2013-06-26 12:47:00,
2013-06-26 05:53:00,56.8,38.9,29.32,NE,47,0.0,0.0,51,0.00,,OVC090,0.00,VWS V14.00,2013-06-26 12:53:00,
2013-06-26 05:58:00,56.8,38.9,29.32,NE,47,0.0,0.0,51,0.00,,OVC090,0.00,VWS V14.00,2013-06-26 12:58:00,
2013-06-26 06:03:00,56.8,38.9,29.32,NE,48,0.0,0.0,51,0.00,,-RA,0.00,VWS V14.00,2013-06-26 13:03:00,
2013-06-26 06:08:00,56.8,38.9,29.32,NE,47,0.0,0.0,51,0.00,,-RA,0.00,VWS V14.00,2013-06-26 13:08:00,
2013-06-26 06:13:00,56.8,38.9,29.32,NE,48,0.0,0.0,51,0.00,,-RA,0.00,VWS V14.00,2013-06-26 13:13:00,
2013-06-26 06:18:00,56.8,38.9,29.32,NE,47,0.0,0.0,51,0.00,,-RA,0.00,VWS V14.00,2013-06-26 13:18:00,
2013-06-26 06:23:00,56.8,38.9,29.32,NE,47,0.0,0.0,51,0.00,,-RA,0.00,VWS V14.00,2013-06-26 13:23:00,
2013-06-26 06:28:00,56.8,38.9,29.32,NE,48,0.0,0.0,51,0.00,,-RA,0.00,VWS V14.00,2013-06-26 13:28:00,
2013-06-26 06:33:00,56.8,38.9,29.32,NE,47,0.0,0.0,51,0.00,,-RA,0.00,VWS V14.00,2013-06-26 13:33:00,
2013-06-26 06:38:00,56.8,38.9,29.32,NE,47,0.0,0.0,51,0.00,,-RA,0.00,VWS V14.00,2013-06-26 13:38:00,
2013-06-26 06:43:00,56.8,38.9,29.32,NE,47,0.0,0.0,51,0.00,,-RA,0.00,VWS V14.00,2013-06-26 13:43:00,
2013-06-26 06:48:00,56.8,38.9,29.32,NE,47,0.0,0.0,51,0.00,,-RA,0.00,VWS V14.00,2013-06-26 13:48:00,
2013-06-26 06:50:00,56.8,38.9,29.32,NE,47,0.0,0.0,51,0.00,,-RA,0.00,VWS V14.00,2013-06-26 13:50:00,
2013-06-26 06:55:00,56.8,38.9,29.32,NE,47,0.0,0.0,51,0.00,,-RA,0.00,VWS V14.00,2013-06-26 13:55:00,
2013-06-26 07:00:00,56.8,38.9,29.32,NE,47,0.0,0.0,51,0.00,,-RA,0.00,VWS V14.00,2013-06-26 14:00:00,
2013-06-26 07:06:00,56.8,38.9,29.32,NE,47,0.0,0.0,51,0.00,,OVC080,0.00,VWS V14.00,2013-06-26 14:06:00,
2013-06-26 07:11:00,56.8,38.9,29.32,NE,48,0.0,0.0,51,0.00,,OVC080,0.00,VWS V14.00,2013-06-26 14:11:00,
2013-06-26 07:16:00,56.8,38.9,29.32,NE,47,0.0,0.0,51,0.00,,OVC080,0.00,VWS V14.00,2013-06-26 14:16:00,
2013-06-26 07:21:00,56.8,38.9,29.32,NE,47,0.0,0.0,51,0.00,,OVC080,0.00,VWS V14.00,2013-06-26 14:21:00,
2013-06-26 07:26:00,56.8,38.9,29.32,NE,47,0.0,0.0,51,0.00,,OVC080,0.00,VWS V14.00,2013-06-26 14:26:00,
2013-06-26 07:31:00,56.8,38.9,29.32,NE,47,0.0,0.0,51,0.00,,OVC080,0.00,VWS V14.00,2013-06-26 14:31:00,
2013-06-26 07:36:00,56.8,38.9,29.32,NE,47,0.0,0.0,51,0.00,,OVC080,0.00,VWS V14.00,2013-06-26 14:36:00,
2013-06-26 07:41:00,56.8,38.9,29.32,NE,47,0.0,0.0,51,0.00,,OVC080,0.00,VWS V14.00,2013-06-26 14:41:00,
2013-06-26 07:46:00,56.8,38.9,29.32,NE,47,0.0,0.0,51,0.00,,OVC080,0.00,VWS V14.00,2013-06-26 14:46:00,
2013-06-26 07:51:00,56.8,38.9,29.32,NE,47,0.0,0.0,51,0.00,,OVC080,0.00,VWS V14.00,2013-06-26 14:51:00,
2013-06-26 07:56:00,56.8,38.9,29.32,NE,48,0.0,0.0,51,0.00,,OVC080,0.00,VWS V14.00,2013-06-26 14:56:00,
2013-06-26 08:01:00,56.8,38.9,29.32,NE,48,0.0,0.0,51,0.00,,OVC080,0.00,VWS V14.00,2013-06-26 15:01:00,
2013-06-26 08:06:00,56.8,38.9,29.32,NE,47,0.0,0.0,51,0.00,,OVC065,0.00,VWS V14.00,2013-06-26 15:06:00,
2013-06-26 08:11:00,56.8,38.9,29.32,NE,47,0.0,0.0,51,0.00,,OVC065,0.00,VWS V14.00,2013-06-26 15:11:00,
2013-06-26 08:16:00,56.8,38.9,29.32,NE,47,0.0,0.0,51,0.00,,OVC065,0.00,VWS V14.00,2013-06-26 15:16:00,
2013-06-26 08:21:00,56.8,38.9,29.32,NE,47,0.0,0.0,51,0.00,,OVC065,0.00,VWS V14.00,2013-06-26 15:21:00,
2013-06-26 08:26:00,56.8,38.9,29.32,NE,48,0.0,0.0,51,0.00,,OVC065,0.00,VWS V14.00,2013-06-26 15:26:00,
2013-06-26 08:31:00,56.8,38.9,29.32,NE,47,0.0,0.0,51,0.00,,OVC065,0.00,VWS V14.00,2013-06-26 15:31:00,
2013-06-26 08:36:00,56.8,38.9,29.32,NE,47,0.0,0.0,51,0.00,,OVC065,0.00,VWS V14.00,2013-06-26 15:36:00,
2013-06-26 08:41:00,56.8,38.9,29.32,NE,47,0.0,0.0,51,0.00,,OVC065,0.00,VWS V14.00,2013-06-26 15:41:00,
2013-06-26 08:46:00,56.8,38.9,29.32,East,96,2.2,2.7,51,0.00,,OVC065,0.00,VWS V14.00,2013-06-26 15:46:00,
2013-06-26 08:51:00,56.8,38.9,29.32,East,96,0.0,0.0,51,0.00,,OVC065,0.00,VWS V14.00,2013-06-26 15:51:00,
2013-06-26 08:56:00,56.8,38.9,29.32,ENE,72,0.0,0.0,51,0.00,,OVC065,0.00,VWS V14.00,2013-06-26 15:56:00,
2013-06-26 09:01:00,56.8,38.9,29.32,ENE,72,0.0,0.0,51,0.00,,OVC065,0.00,VWS V14.00,2013-06-26 16:01:00,
2013-06-26 09:06:00,56.8,38.9,29.32,ENE,75,0.0,0.0,51,0.00,,OVC065,0.00,VWS V14.00,2013-06-26 16:06:00,
2013-06-26 09:11:00,56.8,38.9,29.32,ENE,75,0.0,0.0,51,0.00,,OVC065,0.00,VWS V14.00,2013-06-26 16:11:00,
2013-06-26 09:16:00,56.8,38.9,29.32,ENE,75,0.0,0.0,51,0.00,,OVC065,0.00,VWS V14.00,2013-06-26 16:16:00,
2013-06-26 09:21:00,56.8,38.9,29.32,NNE,19,3.6,3.6,51,0.00,,OVC065,0.00,VWS V14.00,2013-06-26 16:21:00,
2013-06-26 09:26:00,56.8,38.9,29.32,NNE,20,0.0,0.0,51,0.00,,OVC065,0.00,VWS V14.00,2013-06-26 16:26:00,
2013-06-26 09:31:00,56.8,38.9,29.32,NNE,20,0.0,0.0,51,0.00,,OVC065,0.00,VWS V14.00,2013-06-26 16:31:00,
2013-06-26 09:36:00,56.8,38.9,29.32,NNE,20,0.0,0.0,51,0.00,,OVC065,0.00,VWS V14.00,2013-06-26 16:36:00,
2013-06-26 09:41:00,56.8,38.9,29.32,NNE,20,0.0,0.0,51,0.00,,OVC065,0.00,VWS V14.00,2013-06-26 16:41:00,
2013-06-26 09:46:00,56.8,38.9,29.32,East,97,0.0,0.0,51,0.00,,OVC065,0.00,VWS V14.00,2013-06-26 16:46:00,
2013-06-26 09:51:00,56.8,38.9,29.32,East,97,0.0,0.0,51,0.00,,OVC065,0.00,VWS V14.00,2013-06-26 16:51:00,
2013-06-26 09:57:00,56.8,38.9,29.32,ENE,71,0.0,0.0,51,0.00,,OVC065,0.00,VWS V14.00,2013-06-26 16:57:00,
2013-06-26 10:02:00,56.8,38.9,29.32,ENE,71,0.0,0.0,51,0.00,,OVC048,0.00,VWS V14.00,2013-06-26 17:02:00,
2013-06-26 10:07:00,56.8,38.9,29.32,NE,36,0.0,2.2,51,0.00,,OVC048,0.00,VWS V14.00,2013-06-26 17:07:00,
2013-06-26 10:12:00,56.8,38.9,29.32,NE,36,0.0,0.0,51,0.00,,OVC048,0.00,VWS V14.00,2013-06-26 17:12:00,
2013-06-26 10:17:00,56.8,38.9,29.32,East,96,0.0,0.0,51,0.00,,OVC048,0.00,VWS V14.00,2013-06-26 17:17:00,
2013-06-26 10:22:00,56.8,38.9,29.32,ESE,107,3.6,3.6,51,0.00,,OVC048,0.00,VWS V14.00,2013-06-26 17:22:00,
2013-06-26 10:27:00,56.8,38.9,29.32,ESE,102,0.0,2.7,51,0.00,,OVC048,0.00,VWS V14.00,2013-06-26 17:27:00,
2013-06-26 10:32:00,56.8,38.9,29.32,ESE,105,0.0,0.0,51,0.00,,OVC048,0.00,VWS V14.00,2013-06-26 17:32:00,
2013-06-26 10:37:00,56.8,38.9,29.32,ESE,107,0.0,0.0,51,0.00,,OVC048,0.00,VWS V14.00,2013-06-26 17:37:00,
2013-06-26 10:42:00,56.8,38.9,29.32,SE,138,0.0,0.0,51,0.00,,OVC048,0.00,VWS V14.00,2013-06-26 17:42:00,
2013-06-26 10:47:00,56.8,38.9,29.32,East,99,0.0,0.0,51,0.00,,OVC048,0.00,VWS V14.00,2013-06-26 17:47:00,
2013-06-26 10:52:00,56.8,38.9,29.32,ESE,111,0.0,0.0,51,0.00,,OVC048,0.00,VWS V14.00,2013-06-26 17:52:00,
2013-06-26 10:57:00,56.8,38.9,29.32,NE,34,2.2,2.7,51,0.00,,OVC048,0.00,VWS V14.00,2013-06-26 17:57:00,
2013-06-26 11:02:00,56.8,38.9,29.32,SE,144,0.0,0.0,51,0.00,,BKN060,0.00,VWS V14.00,2013-06-26 18:02:00,
2013-06-26 11:07:00,56.8,38.9,29.32,SE,135,0.0,0.0,51,0.00,,BKN060,0.00,VWS V14.00,2013-06-26 18:07:00,
2013-06-26 11:12:00,56.8,38.9,29.32,East,97,0.0,0.0,51,0.00,,BKN060,0.00,VWS V14.00,2013-06-26 18:12:00,
2013-06-26 11:18:00,56.8,38.9,29.32,SE,135,0.0,4.0,51,0.00,,BKN060,0.00,VWS V14.00,2013-06-26 18:18:00,
2013-06-26 11:23:00,56.8,38.9,29.32,ESE,115,0.0,2.7,51,0.00,,BKN060,0.00,VWS V14.00,2013-06-26 18:23:00,
2013-06-26 11:28:00,56.8,38.9,29.32,ENE,74,0.0,2.7,51,0.00,,BKN060,0.00,VWS V14.00,2013-06-26 18:28:00,
2013-06-26 11:33:00,56.8,38.9,29.32,SE,125,0.0,0.0,51,0.00,,BKN060,0.00,VWS V14.00,2013-06-26 18:33:00,
2013-06-26 11:38:00,56.8,38.9,29.32,NE,38,4.0,4.0,51,0.00,,BKN060,0.00,VWS V14.00,2013-06-26 18:38:00,
2013-06-26 11:43:00,56.8,38.9,29.32,East,86,0.0,0.0,51,0.00,,BKN060,0.00,VWS V14.00,2013-06-26 18:43:00,
2013-06-26 11:49:00,56.8,38.9,29.32,SE,137,0.0,0.0,51,0.00,,BKN060,0.00,VWS V14.00,2013-06-26 18:49:00,
2013-06-26 11:54:00,56.8,38.9,29.32,SE,124,0.0,2.7,51,0.00,,BKN060,0.00,VWS V14.00,2013-06-26 18:54:00,
2013-06-26 11:59:00,56.8,38.9,29.32,SE,144,2.2,3.6,51,0.00,,BKN060,0.00,VWS V14.00,2013-06-26 18:59:00,
2013-06-26 12:05:00,56.8,38.9,29.32,SE,146,2.2,4.0,51,0.00,,OVC065,0.00,VWS V14.00,2013-06-26 19:05:00,
2013-06-26 12:10:00,56.8,38.9,29.32,SE,146,0.0,3.6,51,0.00,,OVC065,0.00,VWS V14.00,2013-06-26 19:10:00,
2013-06-26 12:15:00,56.8,38.9,29.32,SSE,155,0.0,0.0,51,0.00,,OVC065,0.00,VWS V14.00,2013-06-26 19:15:00,
2013-06-26 12:20:00,56.8,38.9,29.32,SE,124,2.7,2.7,51,0.00,,OVC065,0.00,VWS V14.00,2013-06-26 19:20:00,
2013-06-26 12:25:00,56.8,38.9,29.32,SE,130,0.0,2.2,51,0.00,,OVC065,0.00,VWS V14.00,2013-06-26 19:25:00,
2013-06-26 12:31:00,56.8,38.9,29.32,SE,128,0.0,0.0,51,0.00,,OVC065,0.00,VWS V14.00,2013-06-26 19:31:00,
2013-06-26 12:36:00,56.8,38.9,29.32,SE,135,0.0,0.0,51,0.00,,OVC065,0.00,VWS V14.00,2013-06-26 19:36:00,
2013-06-26 12:41:00,56.8,38.9,29.32,West,279,0.0,2.7,51,0.00,,OVC065,0.00,VWS V14.00,2013-06-26 19:41:00,
2013-06-26 12:43:00,56.8,38.9,29.32,West,279,0.0,0.0,51,0.00,,OVC065,0.00,VWS V14.00,2013-06-26 19:43:00,
2013-06-26 12:48:00,56.8,38.9,29.32,North,9,0.0,0.0,51,0.00,,OVC065,0.00,VWS V14.00,2013-06-26 19:48:00,
2013-06-26 12:53:00,56.8,38.9,29.32,ESE,121,2.2,2.7,51,0.00,,OVC065,0.00,VWS V14.00,2013-06-26 19:53:00,
2013-06-26 12:59:00,56.8,38.9,29.32,SE,135,0.0,2.2,51,0.00,,OVC065,0.00,VWS V14.00,2013-06-26 19:59:00,
2013-06-26 13:04:00,56.8,38.9,29.32,WSW,243,0.0,0.0,51,0.00,,-RA,0.00,VWS V14.00,2013-06-26 20:04:00,
2013-06-26 13:10:00,56.8,38.9,29.32,SSE,148,0.0,0.0,51,0.00,,-RA,0.00,VWS V14.00,2013-06-26 20:10:00,
2013-06-26 13:15:00,56.8,38.9,29.32,NE,43,0.0,0.0,51,0.00,,-RA,0.00,VWS V14.00,2013-06-26 20:15:00,
2013-06-26 13:21:00,56.8,38.9,29.32,North,10,0.0,0.0,51,0.00,,-RA,0.00,VWS V14.00,2013-06-26 20:21:00,
2013-06-26 13:27:00,56.8,38.9,29.32,NNE,15,0.0,0.0,51,0.00,,-RA,0.00,VWS V14.00,2013-06-26 20:27:00,
2013-06-26 13:32:00,56.8,38.9,29.32,ENE,71,0.0,0.0,51,0.00,,-RA,0.00,VWS V14.00,2013-06-26 20:32:00,
2013-06-26 13:37:00,56.8,38.9,29.32,ENE,71,0.0,2.7,51,0.00,,-RA,0.00,VWS V14.00,2013-06-26 20:37:00,
2013-06-26 13:42:00,56.8,38.9,29.32,WNW,302,0.0,2.2,51,0.00,,-RA,0.00,VWS V14.00,2013-06-26 20:42:00,
2013-06-26 13:48:00,56.8,38.9,29.32,NW,304,0.0,0.0,51,0.00,,-RA,0.00,VWS V14.00,2013-06-26 20:48:00,
2013-06-26 13:53:00,56.8,38.9,29.32,SSW,201,0.0,0.0,51,0.00,,-RA,0.00,VWS V14.00,2013-06-26 20:53:00,
2013-06-26 13:58:00,56.8,38.9,29.32,NE,51,0.0,0.0,51,0.00,,-RA,0.00,VWS V14.00,2013-06-26 20:58:00,
2013-06-26 14:03:00,56.8,38.9,29.32,East,84,0.0,0.0,51,0.00,,BKN090,0.00,VWS V14.00,2013-06-26 21:03:00,
2013-06-26 14:09:00,56.8,38.9,29.32,West,266,0.0,0.0,51,0.00,,BKN090,0.00,VWS V14.00,2013-06-26 21:09:00,
2013-06-26 14:14:00,56.8,38.9,29.32,WNW,282,2.2,2.7,51,0.00,,BKN090,0.00,VWS V14.00,2013-06-26 21:14:00,
2013-06-26 14:17:00,56.8,38.9,29.32,West,266,0.0,0.0,51,0.00,,BKN090,0.00,VWS V14.00,2013-06-26 21:17:00,
2013-06-26 14:23:00,56.8,38.9,29.32,NW,322,0.0,0.0,51,0.00,,BKN090,0.00,VWS V14.00,2013-06-26 21:23:00,
2013-06-26 14:28:00,56.8,38.9,29.32,NNW,336,0.0,2.7,51,0.00,,BKN090,0.00,VWS V14.00,2013-06-26 21:28:00,
2013-06-26 14:33:00,56.8,38.9,29.32,ESE,110,3.1,3.1,51,0.00,,BKN090,0.00,VWS V14.00,2013-06-26 21:33:00,
2013-06-26 14:38:00,56.8,38.9,29.32,West,273,0.0,0.0,51,0.00,,BKN090,0.00,VWS V14.00,2013-06-26 21:38:00,
2013-06-26 14:44:00,56.8,38.9,29.32,SE,125,2.7,3.6,51,0.00,,BKN090,0.00,VWS V14.00,2013-06-26 21:44:00,
2013-06-26 14:49:00,56.8,38.9,29.32,NW,304,0.0,0.0,51,0.00,,BKN090,0.00,VWS V14.00,2013-06-26 21:49:00,
2013-06-26 14:55:00,56.8,38.9,29.32,NW,317,0.0,0.0,51,0.00,,BKN090,0.00,VWS V14.00,2013-06-26 21:55:00,
2013-06-26 15:00:00,56.8,38.9,29.32,NW,321,0.0,0.0,51,0.00,,BKN090,0.00,VWS V14.00,2013-06-26 22:00:00,
2013-06-26 15:06:00,56.8,38.9,29.32,WNW,294,2.7,2.7,51,0.00,,SCT100,0.00,VWS V14.00,2013-06-26 22:06:00,
2013-06-26 15:11:00,56.8,38.9,29.32,SW,234,0.0,2.2,51,0.00,,SCT100,0.00,VWS V14.00,2013-06-26 22:11:00,
2013-06-26 15:17:00,56.8,38.9,29.32,South,189,0.0,0.0,51,0.00,,SCT100,0.00,VWS V14.00,2013-06-26 22:17:00,
2013-06-26 15:22:00,56.8,38.9,29.32,West,269,2.2,2.7,51,0.00,,SCT100,0.00,VWS V14.00,2013-06-26 22:22:00,
2013-06-26 15:27:00,56.8,38.9,29.32,SSE,151,0.0,0.0,51,0.00,,SCT100,0.00,VWS V14.00,2013-06-26 22:27:00,
2013-06-26 15:33:00,56.8,38.9,29.32,SSE,151,0.0,0.0,51,0.00,,SCT100,0.00,VWS V14.00,2013-06-26 22:33:00,
2013-06-26 15:38:00,56.8,38.9,29.32,SSE,157,2.2,3.1,51,0.00,,SCT100,0.00,VWS V14.00,2013-06-26 22:38:00,
2013-06-26 15:43:00,56.8,38.9,29.32,East,92,2.7,2.7,51,0.00,,SCT100,0.00,VWS V14.00,2013-06-26 22:43:00,
2013-06-26 15:48:00,56.8,38.9,29.32,SW,232,0.0,0.0,51,0.00,,SCT100,0.00,VWS V14.00,2013-06-26 22:48:00,
2013-06-26 15:54:00,56.8,38.9,29.32,NE,34,0.0,0.0,51,0.00,,SCT100,0.00,VWS V14.00,2013-06-26 22:54:00,
2013-06-26 16:00:00,56.8,38.9,29.32,NE,56,0.0,0.0,51,0.00,,SCT100,0.00,VWS V14.00,2013-06-26 23:00:00,
2013-06-26 16:05:00,56.8,38.9,29.32,NE,56,0.0,0.0,51,0.00,,-RA,0.00,VWS V14.00,2013-06-26 23:05:00,
2013-06-26 16:10:00,56.8,38.9,29.32,NE,56,0.0,0.0,51,0.00,,-RA,0.00,VWS V14.00,2013-06-26 23:10:00,
2013-06-26 16:15:00,56.8,38.9,29.32,NE,56,0.0,0.0,51,0.00,,-RA,0.00,VWS V14.00,2013-06-26 23:15:00,
2013-06-26 16:20:00,56.8,38.9,29.32,ENE,57,0.0,0.0,51,0.00,,-RA,0.00,VWS V14.00,2013-06-26 23:20:00,
2013-06-26 16:25:00,56.8,38.9,29.32,ENE,57,0.0,0.0,51,0.00,,-RA,0.00,VWS V14.00,2013-06-26 23:25:00,
2013-06-26 16:31:00,56.8,38.9,29.32,ENE,57,0.0,0.0,51,0.00,,-RA,0.00,VWS V14.00,2013-06-26 23:31:00,
2013-06-26 16:36:00,56.8,38.9,29.32,ENE,57,0.0,0.0,51,0.00,,-RA,0.00,VWS V14.00,2013-06-26 23:36:00,
2013-06-26 16:41:00,56.8,38.9,29.32,ENE,57,0.0,0.0,51,0.00,,-RA,0.00,VWS V14.00,2013-06-26 23:41:00,
2013-06-26 16:47:00,56.8,38.9,29.32,NW,325,0.0,0.0,51,0.00,,-RA,0.00,VWS V14.00,2013-06-26 23:47:00,
2013-06-26 16:52:00,56.8,38.9,29.32,NW,311,0.0,0.0,51,0.00,,-RA,0.00,VWS V14.00,2013-06-26 23:52:00,
2013-06-26 16:57:00,56.8,38.9,29.32,WNW,303,0.0,0.0,51,0.00,,-RA,0.00,VWS V14.00,2013-06-26 23:57:00,
2013-06-26 17:02:00,56.8,38.9,29.32,NW,307,0.0,0.0,51,0.00,,-RA,0.00,VWS V14.00,2013-06-27 00:02:00,
2013-06-26 17:07:00,56.8,38.9,29.32,WNW,300,0.0,0.0,51,0.00,,OVC090,0.00,VWS V14.00,2013-06-27 00:07:00,
2013-06-26 17:12:00,56.8,38.9,29.32,WNW,300,0.0,0.0,51,0.00,,OVC090,0.00,VWS V14.00,2013-06-27 00:12:00,
2013-06-26 17:18:00,56.8,38.9,29.32,NW,311,0.0,0.0,51,0.00,,OVC090,0.00,VWS V14.00,2013-06-27 00:18:00,
2013-06-26 17:23:00,56.8,38.9,29.32,SSE,153,0.0,0.0,51,0.00,,OVC090,0.00,VWS V14.00,2013-06-27 00:23:00,
2013-06-26 17:28:00,56.8,38.9,29.32,SE,124,0.0,2.2,51,0.00,,OVC090,0.00,VWS V14.00,2013-06-27 00:28:00,
2013-06-26 17:34:00,56.8,38.9,29.32,SE,124,0.0,0.0,51,0.00,,OVC090,0.00,VWS V14.00,2013-06-27 00:34:00,
2013-06-26 17:40:00,56.8,38.9,29.32,SE,124,0.0,0.0,51,0.00,,OVC090,0.00,VWS V14.00,2013-06-27 00:40:00,
2013-06-26 17:46:00,56.8,38.9,29.32,ENE,70,0.0,0.0,51,0.00,,OVC090,0.00,VWS V14.00,2013-06-27 00:46:00,
2013-06-26 17:51:00,56.8,38.9,29.32,East,81,0.0,0.0,51,0.00,,OVC090,0.00,VWS V14.00,2013-06-27 00:51:00,
2013-06-26 17:57:00,56.8,38.9,29.32,East,86,0.0,0.0,51,0.00,,OVC090,0.00,VWS V14.00,2013-06-27 00:57:00,
2013-06-26 18:02:00,56.8,38.9,29.32,SE,139,0.0,0.0,51,0.00,,OVC090,0.00,VWS V14.00,2013-06-27 01:02:00,
2013-06-26 18:07:00,56.8,38.9,29.32,SE,139,0.0,0.0,51,0.00,,,0.00,VWS V14.00,2013-06-27 01:07:00,
2013-06-26 18:12:00,56.8,38.9,29.32,SE,139,0.0,0.0,51,0.00,,,0.00,VWS V14.00,2013-06-27 01:12:00,
2013-06-26 18:18:00,56.8,38.9,29.32,SE,139,0.0,0.0,51,0.00,,,0.00,VWS V14.00,2013-06-27 01:18:00,
2013-06-26 18:23:00,56.8,38.9,29.32,SE,139,0.0,0.0,51,0.00,,,0.00,VWS V14.00,2013-06-27 01:23:00,
2013-06-26 18:28:00,56.8,38.9,29.32,SE,127,0.0,0.0,51,0.00,,,0.00,VWS V14.00,2013-06-27 01:28:00,
2013-06-26 18:33:00,56.8,38.9,29.32,SE,127,0.0,0.0,51,0.00,,,0.00,VWS V14.00,2013-06-27 01:33:00,
2013-06-26 18:38:00,56.8,38.9,29.32,SE,128,0.0,0.0,51,0.00,,,0.00,VWS V14.00,2013-06-27 01:38:00,
2013-06-26 18:43:00,56.8,38.9,29.32,SE,127,0.0,0.0,51,0.00,,,0.00,VWS V14.00,2013-06-27 01:43:00,
2013-06-26 18:48:00,56.8,38.9,29.32,SE,128,2.7,2.7,51,0.00,,,0.00,VWS V14.00,2013-06-27 01:48:00,
2013-06-26 18:54:00,56.8,38.9,29.32,SE,128,0.0,0.0,51,0.00,,,0.00,VWS V14.00,2013-06-27 01:54:00,
2013-06-26 18:59:00,56.8,38.9,29.32,SE,128,0.0,0.0,51,0.00,,,0.00,VWS V14.00,2013-06-27 01:59:00,
2013-06-26 19:04:00,56.8,38.9,29.32,SE,128,0.0,0.0,51,0.00,,OVC085,0.00,VWS V14.00,2013-06-27 02:04:00,
2013-06-26 19:10:00,56.8,38.9,29.32,SE,128,0.0,0.0,51,0.00,,OVC085,0.00,VWS V14.00,2013-06-27 02:10:00,
2013-06-26 19:15:00,56.8,38.9,29.32,SE,128,0.0,0.0,51,0.00,,OVC085,0.00,VWS V14.00,2013-06-27 02:15:00,
2013-06-26 19:20:00,56.8,38.9,29.32,SE,128,0.0,0.0,51,0.00,,OVC085,0.00,VWS V14.00,2013-06-27 02:20:00,
2013-06-26 19:25:00,56.8,38.9,29.32,SE,128,0.0,0.0,51,0.00,,OVC085,0.00,VWS V14.00,2013-06-27 02:25:00,
2013-06-26 19:31:00,56.8,38.9,29.32,SE,128,0.0,0.0,51,0.00,,OVC085,0.00,VWS V14.00,2013-06-27 02:31:00,
2013-06-26 19:36:00,56.8,38.9,29.32,SE,128,0.0,0.0,51,0.00,,OVC085,0.00,VWS V14.00,2013-06-27 02:36:00,
2013-06-26 19:42:00,56.8,38.9,29.32,SE,128,0.0,0.0,51,0.00,,OVC085,0.00,VWS V14.00,2013-06-27 02:42:00,
2013-06-26 19:47:00,56.8,38.9,29.32,SE,128,0.0,0.0,51,0.00,,OVC085,0.00,VWS V14.00,2013-06-27 02:47:00,
2013-06-26 19:52:00,56.8,38.9,29.32,SE,128,0.0,0.0,51,0.00,,OVC085,0.00,VWS V14.00,2013-06-27 02:52:00,
2013-06-26 19:57:00,56.8,38.9,29.32,SE,128,0.0,0.0,51,0.00,,OVC085,0.00,VWS V14.00,2013-06-27 02:57:00,
2013-06-26 20:02:00,56.8,38.9,29.32,SE,128,0.0,0.0,51,0.00,,CLR,0.00,VWS V14.00,2013-06-27 03:02:00,
2013-06-26 20:07:00,56.8,38.9,29.32,SE,128,0.0,0.0,51,0.00,,CLR,0.00,VWS V14.00,2013-06-27 03:07:00,
2013-06-26 20:13:00,56.8,38.9,29.32,SE,128,0.0,0.0,51,0.00,,CLR,0.00,VWS V14.00,2013-06-27 03:13:00,
2013-06-26 20:18:00,56.8,38.9,29.32,SE,128,0.0,0.0,51,0.00,,CLR,0.00,VWS V14.00,2013-06-27 03:18:00,
2013-06-26 20:24:00,56.8,38.9,29.32,SE,128,0.0,0.0,51,0.00,,CLR,0.00,VWS V14.00,2013-06-27 03:24:00,
2013-06-26 20:29:00,56.8,38.9,29.32,SE,128,0.0,0.0,51,0.00,,CLR,0.00,VWS V14.00,2013-06-27 03:29:00,
2013-06-26 20:34:00,56.8,38.9,29.32,SE,128,0.0,0.0,51,0.00,,CLR,0.00,VWS V14.00,2013-06-27 03:34:00,
2013-06-26 20:39:00,56.8,38.9,29.32,SE,128,0.0,0.0,51,0.00,,CLR,0.00,VWS V14.00,2013-06-27 03:39:00,
2013-06-26 20:44:00,56.8,38.9,29.32,SE,128,0.0,0.0,51,0.00,,CLR,0.00,VWS V14.00,2013-06-27 03:44:00,
2013-06-26 20:49:00,56.8,38.9,29.32,SE,128,0.0,0.0,51,0.00,,CLR,0.00,VWS V14.00,2013-06-27 03:49:00,
2013-06-26 20:55:00,56.8,38.9,29.32,SE,128,0.0,0.0,51,0.00,,CLR,0.00,VWS V14.00,2013-06-27 03:55:00,
2013-06-26 21:00:00,56.8,38.9,29.32,SE,128,0.0,0.0,51,0.00,,CLR,0.00,VWS V14.00,2013-06-27 04:00:00,
2013-06-26 21:02:00,56.8,38.9,29.32,SE,128,0.0,0.0,51,0.00,,CLR,0.00,VWS V14.00,2013-06-27 04:02:00,
2013-06-26 21:03:00,56.8,38.9,29.32,SE,128,0.0,0.0,51,0.00,,OVC095,0.00,VWS V14.00,2013-06-27 04:03:00,
2013-06-26 21:04:00,56.8,38.9,29.32,SE,128,0.0,0.0,51,0.00,,OVC095,0.00,VWS V14.00,2013-06-27 04:04:00,
2013-06-26 21:05:00,56.8,38.9,29.32,SE,128,0.0,0.0,51,0.00,,OVC095,0.00,VWS V14.00,2013-06-27 04:05:00,
2013-06-26 21:11:00,56.8,38.9,29.32,SE,128,0.0,0.0,51,0.00,,OVC095,0.00,VWS V14.00,2013-06-27 04:11:00,
2013-06-26 21:16:00,56.8,38.9,29.32,SE,128,0.0,0.0,51,0.00,,OVC095,0.00,VWS V14.00,2013-06-27 04:16:00,
2013-06-26 21:17:00,56.8,38.9,29.32,SE,128,0.0,0.0,51,0.00,,OVC095,0.00,VWS V14.00,2013-06-27 04:17:00,
2013-06-26 21:23:00,56.8,38.9,29.32,SE,128,0.0,0.0,51,0.00,,OVC095,0.00,VWS V14.00,2013-06-27 04:23:00,
2013-06-26 21:28:00,56.8,38.9,29.32,SE,128,0.0,0.0,51,0.00,,OVC095,0.00,VWS V14.00,2013-06-27 04:28:00,
2013-06-26 21:34:00,56.8,38.9,29.32,SE,128,0.0,0.0,51,0.00,,OVC095,0.00,VWS V14.00,2013-06-27 04:34:00,
2013-06-26 21:40:00,56.8,38.9,29.32,SE,128,0.0,0.0,51,0.00,,OVC095,0.00,VWS V14.00,2013-06-27 04:40:00,
2013-06-26 21:45:00,56.8,38.9,29.32,SE,128,0.0,0.0,51,0.00,,OVC095,0.00,VWS V14.00,2013-06-27 04:45:00,
2013-06-26 21:51:00,56.8,38.9,29.32,SE,128,0.0,0.0,51,0.00,,OVC095,0.00,VWS V14.00,2013-06-27 04:51:00,
2013-06-26 21:56:00,56.8,38.9,29.32,SE,128,0.0,0.0,51,0.00,,OVC095,0.00,VWS V14.00,2013-06-27 04:56:00,
2013-06-26 22:01:00,56.8,38.9,29.32,SE,128,0.0,0.0,51,0.00,,OVC095,0.00,VWS V14.00,2013-06-27 05:01:00,
2013-06-26 22:06:00,56.8,38.9,29.32,SE,128,0.0,0.0,51,0.00,,BKN095,0.00,VWS V14.00,2013-06-27 05:06:00,
2013-06-26 22:12:00,56.8,38.9,29.32,SE,128,0.0,0.0,51,0.00,,BKN095,0.00,VWS V14.00,2013-06-27 05:12:00,
2013-06-26 22:17:00,56.8,38.9,29.32,SE,128,0.0,0.0,51,0.00,,BKN095,0.00,VWS V14.00,2013-06-27 05:17:00,
2013-06-26 22:22:00,56.8,38.9,29.32,SE,128,0.0,0.0,51,0.00,,BKN095,0.00,VWS V14.00,2013-06-27 05:22:00,
2013-06-26 22:27:00,56.8,38.9,29.32,SE,128,0.0,0.0,51,0.00,,BKN095,0.00,VWS V14.00,2013-06-27 05:27:00,
2013-06-26 22:33:00,56.8,38.9,29.32,SE,128,0.0,0.0,51,0.00,,BKN095,0.00,VWS V14.00,2013-06-27 05:33:00,
2013-06-26 22:38:00,56.8,38.9,29.32,SE,128,0.0,0.0,51,0.00,,BKN095,0.00,VWS V14.00,2013-06-27 05:38:00,
2013-06-26 22:43:00,56.8,38.9,29.32,SE,128,0.0,0.0,51,0.00,,BKN095,0.00,VWS V14.00,2013-06-27 05:43:00,
2013-06-26 22:48:00,56.8,38.9,29.32,SE,128,0.0,0.0,51,0.00,,BKN095,0.00,VWS V14.00,2013-06-27 05:48:00,
2013-06-26 22:54:00,56.8,38.9,29.32,SE,128,0.0,0.0,51,0.00,,BKN095,0.00,VWS V14.00,2013-06-27 05:54:00,
2013-06-26 22:59:00,56.8,38.9,29.32,SE,128,0.0,0.0,51,0.00,,BKN095,0.00,VWS V14.00,2013-06-27 05:59:00,
2013-06-26 23:04:00,56.8,38.9,29.32,SE,128,0.0,0.0,51,0.00,,FEW095,0.00,VWS V14.00,2013-06-27 06:04:00,
2013-06-26 23:09:00,56.8,38.9,29.32,SE,128,0.0,0.0,51,0.00,,FEW095,0.00,VWS V14.00,2013-06-27 06:09:00,
2013-06-26 23:15:00,56.8,38.9,29.32,SE,128,0.0,0.0,51,0.00,,FEW095,0.00,VWS V14.00,2013-06-27 06:15:00,
2013-06-26 23:20:00,56.8,38.9,29.32,SE,128,0.0,0.0,51,0.00,,FEW095,0.00,VWS V14.00,2013-06-27 06:20:00,
2013-06-26 23:26:00,56.8,38.9,29.32,SE,128,0.0,0.0,51,0.00,,FEW095,0.00,VWS V14.00,2013-06-27 06:26:00,
2013-06-26 23:32:00,56.8,38.9,29.32,SE,128,0.0,0.0,51,0.00,,FEW095,0.00,VWS V14.00,2013-06-27 06:32:00,
2013-06-26 23:37:00,56.8,38.9,29.32,SE,128,0.0,0.0,51,0.00,,FEW095,0.00,VWS V14.00,2013-06-27 06:37:00,
2013-06-26 23:43:00,56.8,38.9,29.32,SE,128,0.0,0.0,51,0.00,,FEW095,0.00,VWS V14.00,2013-06-27 06:43:00,
2013-06-26 23:48:00,56.8,38.9,29.32,SE,128,0.0,0.0,51,0.00,,FEW095,0.00,VWS V14.00,2013-06-27 06:48:00,
2013-06-26 23:53:00,56.8,38.9,29.32,SE,128,0.0,0.0,51,0.00,,FEW095,0.00,VWS V14.00,2013-06-27 06:53:00,
2013-06-26 23:58:00,56.8,38.9,29.32,SE,128,0.0,0.0,51,0.00,,FEW095,0.00,VWS V14.00,2013-06-27 06:58:00,